Regional Weather Roundup
Issued by NWS

Home | Current Version | Previous Version | Graphics & Text | Print | Product List | Glossary On
Versions: 1 2 3 4 5 6 7 8 9 10 11 12 13 14 15 16 17 18 19 20 21 22 23 24 25 26 27 28
000
ASUS45 KBOI 181510
RWRID

IDAHO REGIONAL WEATHER ROUNDUP
NATIONAL WEATHER SERVICE BOISE ID
900 AM MDT FRI AUG 18 2017

NOTE: "FAIR" INDICATES FEW OR NO CLOUDS BELOW 12000 FEET
WITH NO SIGNIFICANT WEATHER AND/OR OBSTRUCTIONS TO VISIBILITY

IDZ012-014-181600-
SOUTHWEST IDAHO


CITY           SKY/WX    TMP DP  RH WIND       PRES   REMARKS
BOISE          SUNNY     69  41  36 S5        30.11R
CALDWELL       SUNNY     61  51  70 N3        30.10R
MOUNTAIN HOME  SUNNY     71  43  36 NW7       30.11R
$$

IDZ016-017-181600-
SOUTHCENTRAL IDAHO


CITY           SKY/WX    TMP DP  RH WIND       PRES   REMARKS
BURLEY         SUNNY     64  45  49 SW7       30.16R
JEROME         SUNNY     64  43  46 S7        30.17R
TWIN FALLS     SUNNY     72  38  29 SW12G18   30.17R
$$

IDZ019>023-181600-
SOUTHEAST IDAHO


CITY           SKY/WX    TMP DP  RH WIND       PRES   REMARKS
IDAHO FALLS    SUNNY     59  43  55 CALM      30.21R
POCATELLO      SUNNY     63  42  46 NW5       30.20R
REXBURG        SUNNY     57  42  57 CALM      30.22R
$$

IDZ006-010-011-018-031-032-181600-
CENTRAL IDAHO MOUNTAINS


CITY           SKY/WX    TMP DP  RH WIND       PRES   REMARKS
MCCALL         SUNNY     55  41  59 CALM      30.20S
HAILEY         SUNNY     59  39  47 NW9       30.24R
STANLEY          N/A     48  35  60 NE3       30.33R
SALMON         SUNNY     55  42  61 CALM      30.21R
CHALLIS        SUNNY     57  42  57 VRB3      30.24R
$$

IDZ002-004-006-007-026-181600-
NORTHERN IDAHO


CITY           SKY/WX    TMP DP  RH WIND       PRES   REMARKS
LEWISTON       SUNNY     66  47  50 NE8       30.07R
LOWELL           N/A     55  47  74 CALM      30.14S
COEUR D`ALENE  SUNNY     64  50  60 S9        30.07S
MULLAN PASS    SUNNY     58  36  43 CALM      30.22S
$$




USA.gov is the U.S. government's official web portal to all federal, state and local government web resources and services.